This is the latest recevied weather packets stored in our database for station/object DL1BWU. If no packets are shown the sender has not sent any weather packets the latest 10 day(s).
| Time | Temp. | Humidity | Pressure | Rain* | Wind** | Luminosity | Snow |
|---|---|---|---|---|---|---|---|
| 1777530324 | 3.89° C | 67% | 1032.9 hPa | 0 mm | - | - | - |
| 1777529724 | 3.89° C | 67% | 1033 hPa | 0 mm | - | - | - |
| 1777529124 | 3.89° C | 66% | 1032.9 hPa | 0 mm | - | - | - |
| 1777528524 | 3.33° C | 66% | 1032.9 hPa | 0 mm | - | - | - |
| 1777527924 | 2.78° C | 66% | 1032.8 hPa | 0 mm | - | - | - |
| 1777527324 | 2.22° C | 66% | 1033.1 hPa | 0 mm | - | - | - |
| 1777526724 | 2.22° C | 66% | 1032.8 hPa | 0 mm | - | - | - |
| 1777526124 | 1.67° C | 66% | 1033 hPa | 0 mm | - | - | - |
| 1777525524 | 1.67° C | 66% | 1032.9 hPa | 0 mm | - | - | - |
| 1777524924 | 1.67° C | 65% | 1033 hPa | 0 mm | - | - | - |
| 1777524324 | 1.11° C | 65% | 1033 hPa | 0 mm | - | - | - |
| 1777523724 | 1.11° C | 65% | 1032.8 hPa | 0 mm | - | - | - |
| 1777523124 | 1.11° C | 65% | 1032.7 hPa | 0 mm | - | - | - |
| 1777522524 | 1.11° C | 64% | 1032.8 hPa | 0 mm | - | - | - |
| 1777521924 | 1.11° C | 64% | 1032.8 hPa | 0 mm | - | - | - |
| 1777521324 | 1.11° C | 64% | 1032.9 hPa | 0 mm | - | - | - |
| 1777520724 | 1.11° C | 63% | 1032.8 hPa | 0 mm | - | - | - |
| 1777520124 | 1.11° C | 63% | 1032.8 hPa | 0 mm | - | - | - |
| 1777519524 | 1.11° C | 63% | 1032.8 hPa | 0 mm | - | - | - |
| 1777518924 | 1.11° C | 63% | 1032.7 hPa | 0 mm | - | - | - |
| 1777518324 | 1.11° C | 63% | 1032.7 hPa | 0 mm | - | - | - |
| 1777517724 | 1.67° C | 63% | 1032.6 hPa | 0 mm | - | - | - |
| 1777517124 | 1.67° C | 62% | 1032.6 hPa | 0 mm | - | - | - |
| 1777516524 | 1.67° C | 62% | 1032.5 hPa | 0 mm | - | - | - |
| 1777515924 | 1.67° C | 62% | 1032.5 hPa | 0 mm | - | - | - |
* Rain latest hour (hover to see other rain measurements)
** Current wind speed in m/s (hover to see current wind gust speed)